SCP
0 0 0 0 0 0 0 0 0 0 0 0 0 0 0 0 0 0 0 0 0 0 -0 -0 0 0 0 0 0 0 0 0 0 0 0 0 0 0 0 0 0 0 0
0 0 0 0 0 0 0 0 0 0 0 0 0 0 0 0 0 0 0 0 0 0 0 0 -0 0 0 0 0 0 0 0 0 0 0 0 0 0 0 0 0 0 0
0 0 0 0 0 0 0 0 0 0 0 0 0 0 0 0 0 0 0 0 0 0 0 0 0 0 0 0 0 0 0 0 0 0 0 0 0 0 0 0 0 0 0
0 0 0 0 0 0 -0 -0 -0 -0 0 0 0 0 0 0 0 0 0 0 0 0 0 0 0 0 0 0 0 0 0 0 0 0 0 0 0 0 0 0 0 0 0
0 0 0 0 -0 -0 -0 -0 -0 -0 0 0 0 0 0 0 0 0 0 0 0 0 0 0 0 0 0 0 0 0 0 0 0 0 0 0 0 0 0 0 0 0 0
0 0 0 0 -0 -0 -0 -0 -0 -0 -0 0 0 0 0 0 0 0 0 0 0 0 0 0 0 0 0 0 -0 0 0 0 0 0 0 0 0 0 0 0 0 0 0
0 0 0 0 -0 -0 -0 -0 -0 -0 -0 0 0 0 0 0 0 0 0 0 0 0 0 0 0 0 0 0 0 -0 0 0 0 0 0 0 0 0 0 0 0 0 0
0 0 0 0 0 -0 -0 -0 -0 -0 -0 -0 -0 0 0 0 0 0 0 0 0 0 0 0 0 0 0 0 0 0 0 0 0 0 0 0 0 0 0 0 0 0 0
0 0 0 0 0 0 -0 -0 -0 -0 -0 -0 0 -0 0 0 0 0 0 0 0 0 0 0 0 0 0 0 0 0 0 0 0 0 0 0 0 0 0 0 0 0 0
0 0 0 0 0 0 0 -0 -0 -0 -0 0 0 0 0 0 0 0 0 0 0 0 0 0 0 0 0 0 0 0 0 0 0 0 0 0 0 0 0 0 0 0 0
0 0 0 0 0 0 0 0 -0 0 -0 -0 0 0 0 0 0 0 0 0 0 0 0 0 0 0 0 0 0 0 0 0 0 0 0 0 0 0 0 0 0 0 0
0 0 0 0 0 0 0 0 0 0 0 0 0 0 0 0 0 0 0 0 0 0 0 0 0 0 0 0 0 0 0 0 0 0 0 0 0 0 0 0 0 0 0
0 0 0 0 0 0 0 0 0 0 0 0 0 0 0 0 0 0 0 0 0 0 0 0 0 0 0 0 0 0 0 0 0 0 0 0 0 0 0 0 0 0 0
0 0 0 0 0 0 0 0 0 0 0 0 0 0 0 0 0 0 0 0 0 0 0 0 0 0 0 0 0 0 0 0 0 0 0 0 0 0 0 0 0 0 0
0 0 0 0 0 0 0 0 0 0 0 0 0 0 0 0 0 0 0 0 0 0 0 0 0 0 0 0 0 0 0 0 0 0 0 0 0 0 0 0 0 0 0
0 0 0 0 0 0 0 0 0 0 0 0 0 0 0 0 0 0 0 0 0 0 0 0 0 0 0 0 0 0 0 0 0 0 0 0 0 0 0 0 0 0 0
0 0 0 0 0 0 0 0 0 0 0 0 0 0 0 0 0 0 0 0 0 0 0 0 0 0 0 0 0 0 0 0 0 0 0 0 0 0 0 0 0 0 0
0 0 0 0 0 0 0 0 0 0 0 0 0 0 0 0 0 0 0 0 0 0 0 0 0 0 0 0 0 0 0 0 0 0 0 0 0 0 0 0 0 0 0
0 0 0 0 0 0 0 0 0 0 0 0 0 0 0 0 0 0 0 0 0 0 0 0 0 0 0 0 0 0 0 0 0 0 0 0 0 0 0 0 0 0 0
0 0 0 0 0 0 0 0 0 0 0 0 0 0 0 0 0 0 0 0 0 0 0 0 0 0 0 0 0 0 0 0 0 0 0 0 0 0 0 0 0 0 0
0 0 0 0 0 0 0 0 0 0 0 0 0 0 0 0 0 0 0 0 0 0 0 0 0 0 0 0 0 0 0 0 0 0 0 0 0 0 0 0 0 0 0
0 0 0 0 0 0 0 0 0 0 0 0 0 0 0 0 0 0 0 0 0 0 0 0 0 0 0 0 0 0 0 0 0 0 0 0 0 0 0 0 0 0 0
0 0 0 0 0 0 0 0 0 0 0 0 0 0 0 0 0 0 0 0 0 0 0 0 0 0 0 0 0 0 0 0 0 0 0 0 0 0 0 0 0 0 0
0 0 0 0 0 0 0 0 0 0 0 0 0 0 0 0 0 0 0 0 0 0 0 0 0 0 0 0 0 0 0 0 0 0 0 0 0 0 0 0 0 0 0
0 0 0 0 0 0 0 0 0 0 0 0 0 0 0 0 0 0 0 0 0 0 0 0 0 0 0 0 0 0 0 0 0 0 0 0 0 0 0 0 0 0 0
0 0 0 0 0 0 0 0 0 0 0 0 0 0 0 0 0 0 0 0 0 0 0 0 0 0 0 0 0 0 0 0 0 0 0 0 0 0 0 0 0 0 0
Wind_Speed_500mb
4 6 11 14 18 21 24 25 26 27 27 28 29 29 30 33 34 34 35 35 35 34 32 24 20 22 18 22 20 22 23 27 28 25 25 26 25 24 21 15 14 12 11
2 5 8 13 17 19 21 22 23 24 26 26 26 25 25 27 28 27 27 25 25 24 24 28 29 29 21 23 23 25 24 25 28 27 24 24 24 23 22 17 12 11 12
7 8 10 12 16 21 25 27 26 26 25 24 24 22 22 21 22 22 23 27 28 27 26 26 30 30 26 24 19 23 26 28 27 28 25 23 23 22 21 18 12 11 11
11 10 11 14 19 24 26 27 28 29 28 28 26 23 20 16 14 12 14 18 21 25 31 31 27 24 24 25 26 27 27 26 26 28 25 23 22 21 19 17 13 11 10
11 10 12 16 22 26 29 34 36 37 35 32 30 27 18 8 7 7 10 14 17 18 17 16 26 30 32 31 24 27 28 25 25 26 25 23 21 21 18 17 14 10 10
10 9 11 16 22 26 30 36 39 40 41 38 35 21 14 6 9 14 12 11 14 14 14 12 12 17 20 24 22 22 26 24 24 24 26 24 21 21 16 14 14 9 10
9 7 8 13 19 24 32 38 40 41 42 43 39 26 20 9 8 29 15 10 14 20 17 16 16 18 19 19 24 20 18 23 24 27 25 18 21 20 17 13 12 9 10
12 6 7 12 18 24 28 33 40 44 46 49 45 30 17 7 16 11 25 12 21 28 24 22 22 23 24 22 20 20 19 24 28 25 26 24 16 18 17 13 9 7 8
15 6 5 9 15 21 26 33 39 42 41 42 43 33 14 13 39 16 14 36 31 29 25 24 23 27 26 24 20 18 16 16 24 28 25 24 23 16 18 12 8 5 6
19 9 3 6 13 18 23 30 37 40 40 37 35 34 27 28 17 25 41 42 41 35 28 25 21 22 24 23 17 16 14 13 18 24 30 23 25 19 17 11 10 6 5
24 13 3 4 11 15 20 27 33 37 38 36 30 27 27 28 24 30 43 71 55 45 43 24 17 17 17 16 11 11 19 21 16 15 25 28 25 21 19 16 11 7 5
28 17 8 5 10 15 19 25 30 35 36 34 32 29 27 26 28 30 49 61 67 58 42 32 19 20 14 13 11 11 16 19 18 15 15 21 30 24 19 18 10 8 8
32 22 12 8 11 16 21 25 28 31 31 30 30 30 28 27 29 30 36 49 59 69 54 17 33 26 13 16 15 13 13 17 19 17 14 14 27 29 21 21 11 11 13
29 24 16 11 12 16 21 26 27 29 30 30 30 30 30 28 29 31 34 42 62 51 56 67 44 14 28 29 25 21 19 17 17 20 18 16 21 36 23 21 12 15 18
32 27 20 15 14 16 19 24 26 28 29 31 32 33 34 33 32 34 35 35 36 37 66 53 44 49 44 37 27 25 26 24 19 18 18 21 22 38 27 21 13 16 19
36 34 25 18 16 15 19 24 27 29 31 34 36 38 39 38 39 38 37 38 42 44 45 58 70 61 46 37 33 33 27 28 25 20 17 22 33 40 31 22 13 17 20
38 36 26 20 17 16 20 24 28 32 36 38 42 44 45 45 46 44 43 43 48 50 65 77 69 62 40 43 32 29 29 29 30 25 18 24 30 45 27 26 17 20 19
39 34 27 24 19 18 20 25 32 38 43 46 48 50 51 52 52 51 52 55 57 57 60 72 68 66 47 42 36 32 27 30 31 28 21 19 24 43 43 30 23 23 23
37 35 33 28 23 21 23 28 38 48 54 55 57 58 59 59 59 55 54 57 58 59 55 59 66 61 51 48 38 32 28 26 29 27 23 16 21 37 42 33 27 22 22
38 37 35 31 29 26 28 36 48 59 63 63 65 66 63 60 60 57 58 59 57 56 51 53 58 61 58 48 46 37 28 22 27 22 20 20 21 21 44 38 27 20 25
42 40 39 37 30 27 36 44 57 68 70 71 70 67 60 60 60 60 62 62 57 56 50 54 54 58 55 48 41 36 27 18 21 20 19 20 19 23 41 36 33 27 26
47 44 41 35 32 36 44 52 64 72 74 73 72 65 61 63 66 67 64 60 54 56 56 57 63 66 67 65 53 43 30 26 14 22 16 19 24 25 40 44 40 29 27
46 43 40 38 39 44 51 59 69 76 75 71 69 68 71 72 71 70 69 66 62 59 57 59 62 55 55 58 48 39 32 33 32 23 18 23 29 45 37 40 43 31 27
47 43 43 44 44 47 56 69 74 75 72 69 71 71 75 77 68 65 62 58 54 55 57 61 65 63 55 47 49 55 51 44 42 39 34 30 30 41 43 43 42 34 27
46 44 43 43 45 50 64 71 73 72 73 74 74 72 77 74 62 56 55 57 55 59 53 47 53 56 53 46 41 46 49 50 52 43 43 38 38 43 46 47 44 35 32
41 41 41 43 51 62 68 68 66 72 77 77 78 80 69 62 60 56 58 54 59 60 55 52 52 47 46 49 48 50 56 60 58 51 52 44 48 44 37 47 45 41 34
Wind_Direction_500mb
119 29 351 344 341 337 334 330 326 320 316 311 308 307 304 298 295 292 292 295 296 292 299 309 298 293 287 302 312 317 319 327 322 324 338 346 354 355 358 13 20 13 7
89 27 23 14 5 358 357 355 350 343 335 331 324 317 310 304 299 294 284 282 291 294 288 296 300 298 285 288 310 305 310 317 316 315 326 336 344 349 351 9 17 4 5
125 87 56 37 25 18 12 7 359 356 350 344 337 329 315 307 302 299 295 281 275 281 285 292 298 304 284 271 287 304 306 309 309 308 312 323 334 339 347 351 357 351 356
122 95 68 44 35 28 19 11 8 5 5 0 356 347 337 322 311 327 330 327 316 294 281 280 284 293 300 291 275 283 296 303 308 303 306 309 322 328 339 339 338 354 349
131 91 61 44 38 29 18 14 9 6 7 10 4 1 8 20 28 22 358 0 5 352 340 305 275 279 287 285 283 269 285 301 305 303 304 300 309 316 331 330 333 352 339
132 93 59 42 37 27 20 17 16 10 7 13 17 26 26 47 93 38 350 345 356 359 356 342 311 300 297 288 295 274 272 290 298 307 308 295 296 300 319 324 331 347 325
150 111 72 43 32 18 19 15 18 15 8 13 20 36 34 90 99 329 331 302 313 333 326 324 322 310 304 297 299 299 274 284 301 305 301 317 283 283 304 317 331 335 321
172 131 65 34 24 19 17 14 16 19 11 10 18 22 21 70 327 87 10 16 325 322 313 303 308 311 312 307 308 305 281 272 289 291 298 306 308 272 288 303 322 313 315
184 153 79 36 19 15 14 15 15 16 19 11 12 25 6 341 352 344 3 343 351 345 337 313 299 298 310 315 310 307 281 267 285 272 287 291 294 297 274 285 290 290 290
192 183 113 26 11 12 14 13 11 12 11 15 11 8 10 357 342 319 339 348 352 356 356 337 316 299 307 316 307 290 259 268 274 269 274 286 285 304 279 269 262 254 265
196 197 202 340 356 3 7 9 6 6 7 5 5 3 356 355 353 340 328 338 342 352 357 3 341 317 309 324 308 264 260 265 264 259 263 271 279 286 291 268 246 232 233
199 205 224 298 337 347 355 360 1 358 359 358 353 357 355 348 342 341 331 334 331 337 349 355 355 334 303 313 321 277 269 274 266 239 251 260 259 275 281 272 243 213 197
204 209 226 279 314 333 340 346 350 347 348 349 345 345 344 340 334 334 328 330 328 329 334 348 342 340 303 312 311 285 273 279 277 255 246 249 258 258 275 275 240 197 176
209 217 230 267 292 317 326 332 337 336 338 339 339 339 336 331 325 321 324 330 331 327 332 328 337 342 329 319 301 291 278 278 285 267 238 243 246 246 263 271 245 196 189
217 227 239 266 281 306 317 323 326 325 329 329 333 334 331 329 321 313 314 320 325 319 320 315 320 320 323 321 306 282 275 277 281 273 249 231 239 243 250 263 247 213 209
224 234 240 262 278 291 306 317 319 320 322 324 327 327 326 324 318 311 306 308 308 308 295 304 305 313 317 314 311 296 273 271 275 277 263 221 255 241 248 249 239 214 219
232 231 240 256 262 283 304 316 320 322 321 320 321 321 321 319 317 311 306 303 302 300 297 303 309 312 312 309 306 297 283 268 265 272 262 234 242 243 249 235 228 220 213
223 231 242 248 251 276 303 318 323 321 319 316 316 316 317 316 314 312 310 305 300 297 293 294 304 308 310 306 304 297 293 263 262 269 256 239 238 234 236 223 220 224 220
220 229 236 236 249 271 298 315 319 320 317 315 314 313 315 314 312 312 308 304 302 298 291 287 295 300 301 309 302 291 294 277 256 258 244 242 237 235 240 225 221 229 213
219 220 225 230 246 270 298 310 315 316 314 312 311 310 312 310 309 310 305 303 304 299 291 286 288 291 293 300 302 300 290 287 248 256 246 225 241 243 231 220 214 231 205
210 212 220 232 250 284 298 302 309 311 309 307 306 307 307 307 307 305 302 302 300 294 286 277 277 285 287 288 293 299 282 300 261 243 252 234 236 228 218 219 223 226 224
205 213 225 241 264 281 292 296 303 305 304 303 304 305 308 305 303 301 302 299 291 287 287 283 279 274 272 279 282 279 280 267 289 240 249 255 230 235 222 232 232 238 227
211 222 234 249 266 277 289 296 300 300 299 302 303 307 307 304 305 308 304 297 288 279 274 275 276 280 283 271 267 264 261 264 242 242 226 247 247 224 224 233 231 233 230
221 232 244 257 268 281 293 297 299 297 298 301 303 305 303 304 309 305 301 298 296 289 278 267 267 271 273 282 259 256 260 262 258 236 236 250 255 226 225 229 227 232 237
231 239 249 260 274 289 296 299 298 297 299 301 301 301 304 305 307 302 300 300 302 303 304 294 273 267 267 261 260 251 246 244 247 243 232 235 239 230 224 223 227 229 234
233 239 250 268 283 294 298 297 296 298 299 301 302 301 302 302 302 301 299 296 294 300 294 292 289 279 265 251 243 242 239 242 242 244 235 227 230 229 210 219 223 227 227
Wind_Speed_850mb
4 6 11 14 18 21 24 25 26 27 27 28 29 29 30 33 34 34 35 35 35 34 32 24 20 22 18 22 20 22 23 27 28 25 25 26 25 24 21 15 14 12 11
2 5 8 13 17 19 21 22 23 24 26 26 26 25 25 27 28 27 27 25 25 24 24 28 29 29 21 23 23 25 24 25 28 27 24 24 24 23 22 17 12 11 12
7 8 10 12 16 21 25 27 26 26 25 24 24 22 22 21 22 22 23 27 28 27 26 26 30 30 26 24 19 23 26 28 27 28 25 23 23 22 21 18 12 11 11
11 10 11 14 19 24 26 27 28 29 28 28 26 23 20 16 14 12 14 18 21 25 31 31 27 24 24 25 26 27 27 26 26 28 25 23 22 21 19 17 13 11 10
11 10 12 16 22 26 29 34 36 37 35 32 30 27 18 8 7 7 10 14 17 18 17 16 26 30 32 31 24 27 28 25 25 26 25 23 21 21 18 17 14 10 10
10 9 11 16 22 26 30 36 39 40 41 38 35 21 14 6 9 14 12 11 14 14 14 12 12 17 20 24 22 22 26 24 24 24 26 24 21 21 16 14 14 9 10
9 7 8 13 19 24 32 38 40 41 42 43 39 26 20 9 8 29 15 10 14 20 17 16 16 18 19 19 24 20 18 23 24 27 25 18 21 20 17 13 12 9 10
12 6 7 12 18 24 28 33 40 44 46 49 45 30 17 7 16 11 25 12 21 28 24 22 22 23 24 22 20 20 19 24 28 25 26 24 16 18 17 13 9 7 8
15 6 5 9 15 21 26 33 39 42 41 42 43 33 14 13 39 16 14 36 31 29 25 24 23 27 26 24 20 18 16 16 24 28 25 24 23 16 18 12 8 5 6
19 9 3 6 13 18 23 30 37 40 40 37 35 34 27 28 17 25 41 42 41 35 28 25 21 22 24 23 17 16 14 13 18 24 30 23 25 19 17 11 10 6 5
24 13 3 4 11 15 20 27 33 37 38 36 30 27 27 28 24 30 43 71 55 45 43 24 17 17 17 16 11 11 19 21 16 15 25 28 25 21 19 16 11 7 5
28 17 8 5 10 15 19 25 30 35 36 34 32 29 27 26 28 30 49 61 67 58 42 32 19 20 14 13 11 11 16 19 18 15 15 21 30 24 19 18 10 8 8
32 22 12 8 11 16 21 25 28 31 31 30 30 30 28 27 29 30 36 49 59 69 54 17 33 26 13 16 15 13 13 17 19 17 14 14 27 29 21 21 11 11 13
29 24 16 11 12 16 21 26 27 29 30 30 30 30 30 28 29 31 34 42 62 51 56 67 44 14 28 29 25 21 19 17 17 20 18 16 21 36 23 21 12 15 18
32 27 20 15 14 16 19 24 26 28 29 31 32 33 34 33 32 34 35 35 36 37 66 53 44 49 44 37 27 25 26 24 19 18 18 21 22 38 27 21 13 16 19
36 34 25 18 16 15 19 24 27 29 31 34 36 38 39 38 39 38 37 38 42 44 45 58 70 61 46 37 33 33 27 28 25 20 17 22 33 40 31 22 13 17 20
38 36 26 20 17 16 20 24 28 32 36 38 42 44 45 45 46 44 43 43 48 50 65 77 69 62 40 43 32 29 29 29 30 25 18 24 30 45 27 26 17 20 19
39 34 27 24 19 18 20 25 32 38 43 46 48 50 51 52 52 51 52 55 57 57 60 72 68 66 47 42 36 32 27 30 31 28 21 19 24 43 43 30 23 23 23
37 35 33 28 23 21 23 28 38 48 54 55 57 58 59 59 59 55 54 57 58 59 55 59 66 61 51 48 38 32 28 26 29 27 23 16 21 37 42 33 27 22 22
38 37 35 31 29 26 28 36 48 59 63 63 65 66 63 60 60 57 58 59 57 56 51 53 58 61 58 48 46 37 28 22 27 22 20 20 21 21 44 38 27 20 25
42 40 39 37 30 27 36 44 57 68 70 71 70 67 60 60 60 60 62 62 57 56 50 54 54 58 55 48 41 36 27 18 21 20 19 20 19 23 41 36 33 27 26
47 44 41 35 32 36 44 52 64 72 74 73 72 65 61 63 66 67 64 60 54 56 56 57 63 66 67 65 53 43 30 26 14 22 16 19 24 25 40 44 40 29 27
46 43 40 38 39 44 51 59 69 76 75 71 69 68 71 72 71 70 69 66 62 59 57 59 62 55 55 58 48 39 32 33 32 23 18 23 29 45 37 40 43 31 27
47 43 43 44 44 47 56 69 74 75 72 69 71 71 75 77 68 65 62 58 54 55 57 61 65 63 55 47 49 55 51 44 42 39 34 30 30 41 43 43 42 34 27
46 44 43 43 45 50 64 71 73 72 73 74 74 72 77 74 62 56 55 57 55 59 53 47 53 56 53 46 41 46 49 50 52 43 43 38 38 43 46 47 44 35 32
41 41 41 43 51 62 68 68 66 72 77 77 78 80 69 62 60 56 58 54 59 60 55 52 52 47 46 49 48 50 56 60 58 51 52 44 48 44 37 47 45 41 34
Wind_Direction_850mb
119 29 351 344 341 337 334 330 326 320 316 311 308 307 304 298 295 292 292 295 296 292 299 309 298 293 287 302 312 317 319 327 322 324 338 346 354 355 358 13 20 13 7
89 27 23 14 5 358 357 355 350 343 335 331 324 317 310 304 299 294 284 282 291 294 288 296 300 298 285 288 310 305 310 317 316 315 326 336 344 349 351 9 17 4 5
125 87 56 37 25 18 12 7 359 356 350 344 337 329 315 307 302 299 295 281 275 281 285 292 298 304 284 271 287 304 306 309 309 308 312 323 334 339 347 351 357 351 356
122 95 68 44 35 28 19 11 8 5 5 0 356 347 337 322 311 327 330 327 316 294 281 280 284 293 300 291 275 283 296 303 308 303 306 309 322 328 339 339 338 354 349
131 91 61 44 38 29 18 14 9 6 7 10 4 1 8 20 28 22 358 0 5 352 340 305 275 279 287 285 283 269 285 301 305 303 304 300 309 316 331 330 333 352 339
132 93 59 42 37 27 20 17 16 10 7 13 17 26 26 47 93 38 350 345 356 359 356 342 311 300 297 288 295 274 272 290 298 307 308 295 296 300 319 324 331 347 325
150 111 72 43 32 18 19 15 18 15 8 13 20 36 34 90 99 329 331 302 313 333 326 324 322 310 304 297 299 299 274 284 301 305 301 317 283 283 304 317 331 335 321
172 131 65 34 24 19 17 14 16 19 11 10 18 22 21 70 327 87 10 16 325 322 313 303 308 311 312 307 308 305 281 272 289 291 298 306 308 272 288 303 322 313 315
184 153 79 36 19 15 14 15 15 16 19 11 12 25 6 341 352 344 3 343 351 345 337 313 299 298 310 315 310 307 281 267 285 272 287 291 294 297 274 285 290 290 290
192 183 113 26 11 12 14 13 11 12 11 15 11 8 10 357 342 319 339 348 352 356 356 337 316 299 307 316 307 290 259 268 274 269 274 286 285 304 279 269 262 254 265
196 197 202 340 356 3 7 9 6 6 7 5 5 3 356 355 353 340 328 338 342 352 357 3 341 317 309 324 308 264 260 265 264 259 263 271 279 286 291 268 246 232 233
199 205 224 298 337 347 355 360 1 358 359 358 353 357 355 348 342 341 331 334 331 337 349 355 355 334 303 313 321 277 269 274 266 239 251 260 259 275 281 272 243 213 197
204 209 226 279 314 333 340 346 350 347 348 349 345 345 344 340 334 334 328 330 328 329 334 348 342 340 303 312 311 285 273 279 277 255 246 249 258 258 275 275 240 197 176
209 217 230 267 292 317 326 332 337 336 338 339 339 339 336 331 325 321 324 330 331 327 332 328 337 342 329 319 301 291 278 278 285 267 238 243 246 246 263 271 245 196 189
217 227 239 266 281 306 317 323 326 325 329 329 333 334 331 329 321 313 314 320 325 319 320 315 320 320 323 321 306 282 275 277 281 273 249 231 239 243 250 263 247 213 209
224 234 240 262 278 291 306 317 319 320 322 324 327 327 326 324 318 311 306 308 308 308 295 304 305 313 317 314 311 296 273 271 275 277 263 221 255 241 248 249 239 214 219
232 231 240 256 262 283 304 316 320 322 321 320 321 321 321 319 317 311 306 303 302 300 297 303 309 312 312 309 306 297 283 268 265 272 262 234 242 243 249 235 228 220 213
223 231 242 248 251 276 303 318 323 321 319 316 316 316 317 316 314 312 310 305 300 297 293 294 304 308 310 306 304 297 293 263 262 269 256 239 238 234 236 223 220 224 220
220 229 236 236 249 271 298 315 319 320 317 315 314 313 315 314 312 312 308 304 302 298 291 287 295 300 301 309 302 291 294 277 256 258 244 242 237 235 240 225 221 229 213
219 220 225 230 246 270 298 310 315 316 314 312 311 310 312 310 309 310 305 303 304 299 291 286 288 291 293 300 302 300 290 287 248 256 246 225 241 243 231 220 214 231 205
210 212 220 232 250 284 298 302 309 311 309 307 306 307 307 307 307 305 302 302 300 294 286 277 277 285 287 288 293 299 282 300 261 243 252 234 236 228 218 219 223 226 224
205 213 225 241 264 281 292 296 303 305 304 303 304 305 308 305 303 301 302 299 291 287 287 283 279 274 272 279 282 279 280 267 289 240 249 255 230 235 222 232 232 238 227
211 222 234 249 266 277 289 296 300 300 299 302 303 307 307 304 305 308 304 297 288 279 274 275 276 280 283 271 267 264 261 264 242 242 226 247 247 224 224 233 231 233 230
221 232 244 257 268 281 293 297 299 297 298 301 303 305 303 304 309 305 301 298 296 289 278 267 267 271 273 282 259 256 260 262 258 236 236 250 255 226 225 229 227 232 237
231 239 249 260 274 289 296 299 298 297 299 301 301 301 304 305 307 302 300 300 302 303 304 294 273 267 267 261 260 251 246 244 247 243 232 235 239 230 224 223 227 229 234
233 239 250 268 283 294 298 297 296 298 299 301 302 301 302 302 302 301 299 296 294 300 294 292 289 279 265 251 243 242 239 242 242 244 235 227 230 229 210 219 223 227 227